Back to catalog

DELTA 1 DEB

AliveLEO
NORAD 10759·DEBRIS·🇺🇸 United States

Launched Jul 29, 1976 from Vandenberg Space Force Base

Loading…

Next Passes (next 24 hours)

TLE

FreshSource: Space-Track

Epoch: Sep 14, 2026, 11:54 UTC

1 10759U 76077BG  26257.49627770 -.00000269  00000-0 -16029-2 0  9992
2 10759 102.4775 161.5900 0065602 219.0462 314.5298 12.42097735262681

Track DELTA 1 DEB in real time with AllMySat

Download on the App Store